QPF
0.01 0.00 0.00 0.00 0.00 0.00 0.00 0.00 0.00 0.00 0.00 0.00 0.00 0.00 0.00 0.00 0.00 0.00 0.00 0.00 0.00 0.00
0.00 0.00 0.00 0.00 0.00 0.00 0.00 0.00 0.00 0.00 0.00 0.00 0.00 0.00 0.00 0.00 0.00 0.00 0.00 0.00 0.00 0.00
0.00 0.00 0.00 0.00 0.00 0.00 0.00 0.00 0.00 0.00 0.00 0.00 0.00 0.00 0.00 0.00 0.00 0.00 0.00 0.00 0.00 0.00
0.00 0.00 0.00 0.00 0.00 0.00 0.00 0.00 0.00 0.00 0.00 0.00 0.00 0.00 0.00 0.00 0.00 0.00 0.00 0.00 0.00 0.00
0.00 0.00 0.00 0.00 0.00 0.00 0.00 0.00 0.00 0.00 0.00 0.00 0.00 0.00 0.00 0.00 0.00 0.00 0.00 0.00 0.00 0.00
0.00 0.00 0.00 0.00 0.00 0.00 0.00 0.00 0.00 0.00 0.00 0.00 0.00 0.00 0.00 0.00 0.00 0.00 0.00 0.00 0.00 0.00
0.00 0.00 0.00 0.00 0.00 0.00 0.00 0.00 0.00 0.00 0.00 0.00 0.00 0.00 0.00 0.00 0.00 0.00 0.00 0.00 0.00 0.00
0.00 0.00 0.00 0.00 0.00 0.00 0.00 0.00 0.00 0.00 0.00 0.00 0.00 0.00 0.00 0.00 0.00 0.00 0.00 0.00 0.00 0.00
0.00 0.00 0.00 0.00 0.00 0.00 0.00 0.00 0.00 0.00 0.00 0.00 0.00 0.00 0.00 0.00 0.00 0.00 0.00 0.00 0.00 0.00
0.00 0.00 0.00 0.00 0.00 0.00 0.00 0.00 0.00 0.00 0.00 0.00 0.00 0.00 0.00 0.00 0.00 0.00 0.00 0.00 0.00 0.00
0.00 0.00 0.00 0.00 0.00 0.00 0.00 0.00 0.00 0.00 0.00 0.00 0.00 0.00 0.00 0.00 0.00 0.00 0.00 0.00 0.00 0.00
0.00 0.00 0.00 0.00 0.00 0.00 0.00 0.00 0.00 0.00 0.00 0.00 0.00 0.00 0.00 0.00 0.00 0.00 0.00 0.00 0.00 0.00
0.00 0.00 0.00 0.00 0.00 0.00 0.00 0.00 0.00 0.00 0.00 0.00 0.00 0.00 0.00 0.00 0.00 0.00 0.00 0.00 0.00 0.00
0.00 0.00 0.00 0.00 0.00 0.00 0.00 0.00 0.00 0.00 0.00 0.00 0.00 0.00 0.00 0.00 0.00 0.00 0.00 0.00 0.00 0.00
MSLP
1015.29 1015.68 1016.53 1016.90 1017.19 1017.66 1018.19 1018.87 1019.20 1019.59 1020.09 1020.52 1020.86 1021.30 1021.61 1022.04 1022.30 1022.53 1022.79 1023.02 1023.20 1023.36
1015.60 1015.96 1016.63 1017.05 1017.39 1018.07 1018.54 1019.02 1019.51 1019.94 1020.57 1020.89 1021.20 1021.54 1021.83 1022.20 1022.37 1022.56 1022.77 1022.95 1023.08 1023.25
1015.97 1016.43 1016.94 1017.48 1018.07 1018.40 1019.09 1019.36 1020.05 1020.42 1020.80 1021.16 1021.40 1021.63 1021.96 1022.28 1022.42 1022.61 1022.76 1022.84 1022.96 1023.04
1016.48 1017.00 1017.47 1018.15 1018.69 1019.02 1019.55 1020.01 1020.31 1020.73 1021.08 1021.35 1021.57 1021.75 1022.03 1022.24 1022.39 1022.58 1022.73 1022.78 1022.90 1022.98
1017.10 1017.67 1018.29 1018.61 1019.09 1019.52 1019.83 1020.18 1020.58 1020.93 1021.22 1021.46 1021.60 1021.74 1021.96 1022.20 1022.34 1022.51 1022.66 1022.71 1022.76 1022.79
1018.15 1018.59 1019.06 1019.38 1019.70 1020.01 1020.36 1020.64 1020.78 1021.04 1021.20 1021.32 1021.50 1021.68 1021.78 1021.90 1022.04 1022.16 1022.31 1022.44 1022.51 1022.51
1019.05 1019.37 1019.62 1019.85 1020.14 1020.41 1020.70 1020.91 1021.07 1021.21 1021.32 1021.39 1021.42 1021.47 1021.54 1021.65 1021.78 1021.89 1021.92 1021.97 1022.03 1022.01
1019.48 1019.66 1019.92 1020.25 1020.55 1020.79 1020.96 1021.12 1021.19 1021.22 1021.19 1021.17 1021.24 1021.29 1021.34 1021.37 1021.44 1021.54 1021.54 1021.46 1021.50 1021.54
1019.88 1020.15 1020.45 1020.66 1020.83 1020.95 1021.05 1021.07 1021.09 1021.15 1021.27 1021.28 1021.16 1021.03 1020.92 1020.90 1021.01 1020.94 1020.99 1020.99 1021.13 1021.03
1020.22 1020.49 1020.65 1020.78 1020.96 1021.14 1021.26 1021.31 1021.42 1021.44 1021.43 1021.32 1021.14 1020.87 1020.63 1020.50 1020.42 1020.54 1020.73 1020.88 1020.79 1020.48
1020.44 1020.76 1020.94 1021.07 1021.26 1021.32 1021.39 1021.48 1021.52 1021.42 1021.35 1021.23 1021.02 1020.68 1020.41 1020.18 1020.10 1020.26 1020.33 1020.25 1020.06 1019.88
1020.81 1021.09 1021.18 1021.44 1021.56 1021.52 1021.54 1021.50 1021.44 1021.28 1021.16 1021.02 1020.73 1020.50 1020.18 1019.96 1020.03 1019.97 1019.89 1019.73 1019.55 1019.29
1020.97 1021.12 1021.40 1021.51 1021.52 1021.40 1021.43 1021.36 1021.27 1021.16 1021.01 1020.89 1020.78 1020.50 1020.16 1019.88 1019.72 1019.72 1019.58 1019.28 1018.90 1018.66
1021.12 1021.24 1021.39 1021.55 1021.58 1021.47 1021.42 1021.39 1021.33 1021.31 1021.26 1021.13 1020.92 1020.55 1019.99 1019.57 1019.31 1019.23 1018.93 1018.72 1018.37 1018.14
Thickness
5638 5635 5626 5621 5617 5611 5603 5594 5588 5582 5574 5567 5560 5552 5547 5539 5532 5526 5519 5513 5506 5500
5629 5624 5617 5612 5607 5599 5591 5582 5574 5567 5559 5552 5544 5537 5531 5523 5516 5509 5501 5495 5488 5481
5618 5612 5606 5600 5591 5584 5575 5569 5559 5551 5542 5535 5527 5520 5512 5504 5496 5489 5481 5475 5468 5460
5607 5601 5594 5584 5576 5569 5559 5550 5542 5533 5525 5517 5509 5501 5492 5484 5477 5469 5462 5454 5447 5439
5594 5586 5579 5571 5561 5553 5545 5536 5527 5518 5509 5500 5492 5483 5475 5467 5458 5451 5442 5434 5426 5419
5578 5571 5561 5553 5545 5537 5528 5519 5510 5501 5491 5483 5473 5464 5457 5450 5442 5433 5425 5417 5409 5402
5560 5552 5545 5538 5530 5521 5511 5500 5490 5481 5472 5463 5455 5448 5440 5433 5426 5417 5411 5404 5396 5391
5546 5539 5532 5522 5512 5502 5492 5482 5472 5462 5452 5444 5436 5429 5421 5416 5411 5403 5399 5394 5391 5387
5532 5524 5515 5505 5496 5486 5476 5465 5454 5442 5431 5423 5418 5414 5409 5405 5399 5396 5393 5391 5385 5381
5519 5509 5500 5490 5479 5467 5454 5441 5428 5418 5410 5405 5401 5400 5398 5395 5393 5391 5386 5382 5378 5377
5505 5494 5483 5472 5458 5446 5433 5420 5408 5401 5396 5393 5391 5392 5390 5390 5389 5385 5381 5378 5376 5373
5488 5476 5464 5451 5439 5428 5417 5405 5397 5392 5389 5387 5385 5385 5385 5386 5382 5380 5377 5375 5372 5369
5470 5458 5446 5434 5424 5417 5407 5400 5394 5390 5386 5384 5381 5381 5381 5379 5377 5375 5373 5371 5369 5366
5454 5441 5429 5419 5413 5407 5401 5395 5391 5387 5382 5379 5377 5375 5377 5376 5375 5372 5372 5368 5366 5363